Visibility
15.0 15.0 15.0 15.0 15.0 15.0 15.0 15.0 15.0 15.0 15.0 15.0 15.0 15.0 15.0 15.0 15.0 15.0 15.0 15.0 15.0 15.0 15.0 15.0 15.0 15.0 15.0 15.0 15.0 15.0 15.0 9.4 15.0 15.0 15.0 15.0 15.0 15.0 15.0 15.0 15.0 15.0 15.0 15.0
15.0 15.0 15.0 15.0 15.0 15.0 15.0 15.0 15.0 15.0 15.0 15.0 15.0 15.0 15.0 15.0 15.0 15.0 15.0 15.0 15.0 15.0 15.0 15.0 15.0 15.0 15.0 15.0 15.0 15.0 15.0 15.0 15.0 15.0 15.0 15.0 15.0 15.0 15.0 15.0 15.0 15.0 15.0 15.0
15.0 15.0 15.0 15.0 15.0 15.0 15.0 15.0 15.0 15.0 15.0 15.0 15.0 15.0 15.0 15.0 15.0 15.0 15.0 15.0 15.0 15.0 15.0 15.0 15.0 15.0 15.0 15.0 15.0 15.0 15.0 15.0 15.0 15.0 15.0 15.0 15.0 15.0 15.0 15.0 15.0 15.0 15.0 15.0
15.0 15.0 15.0 15.0 15.0 15.0 15.0 15.0 15.0 15.0 15.0 15.0 15.0 15.0 15.0 15.0 15.0 15.0 15.0 15.0 15.0 15.0 15.0 15.0 15.0 15.0 15.0 15.0 15.0 15.0 15.0 15.0 15.0 15.0 15.0 15.0 15.0 15.0 15.0 15.0 15.0 15.0 15.0 15.0
15.0 15.0 15.0 15.0 15.0 15.0 15.0 15.0 15.0 15.0 15.0 15.0 15.0 15.0 15.0 15.0 15.0 15.0 15.0 15.0 15.0 15.0 15.0 15.0 15.0 15.0 15.0 15.0 15.0 15.0 15.0 15.0 15.0 15.0 15.0 15.0 15.0 15.0 15.0 15.0 15.0 15.0 15.0 15.0
15.0 15.0 15.0 15.0 15.0 15.0 15.0 15.0 15.0 15.0 15.0 15.0 15.0 15.0 15.0 15.0 15.0 15.0 11.1 11.5 15.0 15.0 15.0 15.0 15.0 15.0 15.0 15.0 12.0 15.0 15.0 15.0 15.0 15.0 15.0 15.0 15.0 15.0 15.0 15.0 15.0 15.0 15.0 15.0
15.0 15.0 15.0 15.0 15.0 15.0 15.0 15.0 15.0 15.0 15.0 15.0 15.0 15.0 15.0 15.0 15.0 9.2 8.0 15.0 15.0 15.0 15.0 15.0 15.0 15.0 15.0 15.0 15.0 3.8 15.0 15.0 15.0 15.0 15.0 15.0 15.0 15.0 15.0 15.0 15.0 15.0 15.0 15.0
15.0 15.0 15.0 15.0 15.0 15.0 15.0 15.0 10.6 14.6 15.0 15.0 15.0 8.5 15.0 15.0 5.0 7.9 15.0 15.0 15.0 14.5 15.0 15.0 15.0 15.0 15.0 15.0 15.0 13.3 13.9 15.0 15.0 15.0 15.0 15.0 15.0 15.0 15.0 15.0 15.0 15.0 15.0 15.0
15.0 15.0 15.0 15.0 15.0 15.0 15.0 15.0 15.0 1.3 13.0 15.0 15.0 15.0 15.0 15.0 14.3 1.4 12.1 15.0 15.0 15.0 15.0 15.0 15.0 15.0 15.0 14.1 2.6 15.0 15.0 15.0 15.0 12.5 15.0 15.0 15.0 15.0 15.0 15.0 15.0 15.0 15.0 15.0
15.0 15.0 15.0 15.0 15.0 15.0 13.7 15.0 12.7 5.8 0.1 1.4 15.0 15.0 6.7 9.0 11.9 1.9 15.0 15.0 15.0 15.0 15.0 15.0 15.0 15.0 15.0 15.0 9.8 7.5 2.2 2.2 9.8 15.0 7.0 15.0 15.0 15.0 15.0 15.0 15.0 15.0 15.0 15.0
15.0 15.0 15.0 15.0 15.0 15.0 15.0 8.0 15.0 10.2 12.4 15.0 15.0 4.1 6.3 13.9 2.5 6.5 15.0 15.0 15.0 15.0 15.0 15.0 15.0 15.0 15.0 15.0 15.0 15.0 10.1 8.2 2.3 2.2 15.0 15.0 14.3 15.0 15.0 15.0 15.0 15.0 15.0 15.0
15.0 15.0 15.0 15.0 15.0 15.0 15.0 5.6 6.0 0.1 9.2 15.0 8.7 2.6 15.0 13.9 12.0 2.3 15.0 15.0 15.0 15.0 15.0 15.0 15.0 15.0 15.0 15.0 14.9 15.0 1.4 8.9 14.4 5.1 11.2 15.0 5.8 15.0 15.0 14.8 15.0 15.0 15.0 15.0
15.0 15.0 15.0 15.0 15.0 15.0 15.0 2.5 1.3 0.1 5.3 14.7 2.4 0.0 10.9 7.1 3.9 9.0 15.0 15.0 15.0 15.0 15.0 15.0 15.0 15.0 15.0 15.0 15.0 15.0 15.0 2.6 15.0 15.0 15.0 14.4 13.7 15.0 11.2 15.0 15.0 15.0 14.3 15.0
15.0 15.0 15.0 15.0 15.0 15.0 15.0 15.0 10.3 0.5 0.0 6.4 0.0 0.0 3.9 7.4 0.8 4.3 15.0 15.0 15.0 15.0 15.0 15.0 15.0 15.0 15.0 15.0 15.0 15.0 14.5 14.1 5.9 12.0 15.0 9.2 15.0 11.3 10.6 15.0 15.0 15.0 15.0 15.0
15.0 13.6 15.0 15.0 15.0 14.0 14.9 15.0 15.0 5.1 0.1 0.4 0.0 0.0 0.2 15.0 15.0 15.0 15.0 15.0 15.0 15.0 15.0 15.0 15.0 15.0 15.0 15.0 14.4 14.5 13.4 6.7 9.7 5.8 9.0 0.4 6.3 12.8 15.0 15.0 14.8 15.0 13.6 15.0
0.2 0.2 15.0 15.0 15.0 15.0 15.0 15.0 15.0 0.9 0.0 0.0 15.0 0.0 2.2 15.0 15.0 15.0 15.0 15.0 15.0 15.0 15.0 15.0 15.0 15.0 13.9 13.5 15.0 15.0 7.1 3.2 13.0 14.8 14.8 5.1 6.0 5.4 15.0 15.0 15.0 15.0 15.0 15.0
15.0 15.0 4.8 12.4 15.0 15.0 14.3 15.0 15.0 3.7 0.1 0.6 0.0 3.2 15.0 11.0 0.5 1.5 15.0 15.0 15.0 15.0 15.0 8.8 0.2 0.2 10.6 1.6 13.8 1.2 9.4 4.6 4.0 7.8 15.0 13.7 11.1 6.7 13.8 15.0 15.0 15.0 15.0 14.5
15.0 15.0 0.4 3.3 13.1 0.3 13.1 15.0 7.8 7.9 11.5 15.0 15.0 15.0 15.0 1.1 3.7 3.4 8.6 14.9 15.0 12.1 10.4 3.0 3.3 0.1 0.0 0.2 6.4 7.6 6.5 8.7 13.2 6.4 10.2 7.4 12.0 10.8 6.9 15.0 15.0 15.0 14.7 15.0
15.0 15.0 0.2 0.1 12.4 0.1 2.0 1.8 9.2 12.4 0.1 15.0 15.0 15.0 15.0 15.0 15.0 0.2 2.0 8.8 3.2 1.6 1.6 0.4 0.4 0.2 0.1 0.0 0.0 4.8 12.1 15.0 2.6 0.3 0.1 0.1 4.7 5.9 8.1 6.6 15.0 9.6 15.0 12.9
15.0 14.5 0.1 0.5 0.1 0.1 0.1 15.0 15.0 15.0 0.0 15.0 15.0 15.0 15.0 15.0 0.8 0.2 0.2 5.7 5.9 0.6 0.4 0.3 0.2 0.1 0.1 0.0 0.0 0.1 1.1 9.3 0.5 0.1 0.1 0.2 1.1 0.2 0.2 5.9 13.1 9.1 5.5 1.3
11.2 1.4 0.1 0.2 0.1 0.5 10.3 15.0 15.0 12.5 0.0 15.0 15.0 15.0 15.0 1.0 1.1 0.1 0.2 0.1 0.0 0.0 0.1 0.6 0.3 0.1 0.1 0.1 0.1 0.3 0.3 0.1 0.1 0.1 0.1 0.1 0.1 0.1 0.1 0.1 2.5 4.5 1.8 0.9
15.0 0.3 0.1 0.2 0.1 0.1 15.0 5.9 3.6 0.2 15.0 15.0 15.0 15.0 15.0 1.1 0.6 0.2 0.6 1.3 4.0 0.6 0.7 4.3 0.5 0.1 0.1 0.1 0.1 0.1 0.2 0.1 0.1 0.1 0.2 0.1 0.1 0.1 0.3 0.1 0.0 0.0 0.2 0.9
0.1 0.0 0.1 0.0 0.0 0.1 15.0 5.9 14.1 15.0 13.7 15.0 15.0 15.0 15.0 2.8 0.9 2.8 1.5 1.8 0.5 0.3 0.2 0.3 0.4 0.5 0.2 0.1 0.2 0.8 0.1 0.2 0.1 0.2 0.2 0.2 0.1 0.1 0.2 0.3 0.1 0.1 0.1 0.1
3.2 15.0 0.0 0.3 0.1 2.6 8.9 15.0 15.0 15.0 15.0 15.0 15.0 15.0 13.7 0.8 1.1 1.1 2.6 1.8 1.0 0.2 0.2 0.9 2.1 0.5 0.2 0.1 0.1 0.0 0.1 0.2 0.3 0.2 0.2 0.1 0.1 0.2 0.2 0.2 0.3 0.2 0.1 0.1
2.5 12.1 0.2 0.0 0.0 5.5 10.5 13.3 11.5 15.0 15.0 15.0 11.0 2.3 8.8 15.0 3.6 10.6 1.0 0.6 0.2 0.2 0.5 1.4 0.7 0.7 0.3 1.2 0.6 0.3 0.2 0.3 0.1 0.6 0.7 0.3 0.2 0.1 0.2 0.2 0.2 0.2 0.1 0.1
0.3 0.0 1.1 0.3 0.6 2.1 0.4 12.0 15.0 0.7 1.0 15.0 11.9 1.9 4.2 15.0 4.3 4.1 0.2 0.1 0.2 0.3 0.4 0.4 0.1 0.1 0.1 0.2 0.2 1.8 15.0 15.0 15.0 5.4 4.1 14.6 15.0 15.0 15.0 15.0 11.4 12.6 11.1 11.9